Tracking 28096 objects as of 29-Sep-2023
HD Live streaming from Space Station
objects crossing your sky now

DELTA 1 DEB

Track DELTA 1 DEB now!
10-day predictions


NORAD ID: 10644
Int'l Code: 1976-077E
Perigee: 1,343.3 km
Apogee: 1,503.8 km
Inclination: 101.2 °
Period: 114.1 minutes
Semi major axis: 7794 km
RCS: 0.0443 m2 (small)
Launch date: July 29, 1976
Source: United States (US)
Launch site: AIR FORCE WESTERN TEST RANGE (AFWTR)

Note: This is SATELLITE DEBRIS
Your satellite tracking list
Your tracking list is empty




NASA's NSSDC Master Catalog

Two Line Element Set (TLE):
1 10644U 76077E   23268.17463057  .00000071  00000-0  62857-3 0  9995
2 10644 101.2420 250.5583 0102916 206.6949 216.0757 12.61583115169120
Source of the keplerian elements: AFSPC